FORMOSAT-3 FM1 (29048 NORAD) Tracking and Keplerian Element Data

This shows tracking and keplerian element data for the satellite.

Feedback or suggestion? Click here.




ElementValue
Catalog29048
NameFORMOSAT-3 FM1
Epoch Orbit66574
Epoch Day352.85317754
Epoch Year2018
RAAN57.0875
Inclination71.9679
Eccentricity0.0045896
Argument of Perigee242.663
Mean Anonmoly116.9831
Mean Motion14.28606899
Decay Rate6.8E-07
L11 29048U 06011B 18352.85317754 .00000068 00000-0 43276-4 0 9990
L22 29048 71.9679 57.0875 0045896 242.6630 116.9831 14.28606899665741

Live tracking and technical data element details for FORMOSAT-3 FM1 (NORAD 29048). FORMOSAT-3 FM1 can be tracked NOW for your location showing map with azimuth and elevation plus other details from your city location.

Track the satellite on the map from your city or location and see movement details for azimuth, elevation, latitude, longitude, range, height, and movement on the map or in text.







IsCatalogInMostPopularTable: catalog: 29048, numindb: 45
Update: records affected: 1



GetName: 29048 FORMOSAT-3 FM1

Hit Count: updated at: Wed, 19 Dec 2018 16:40:33 GMT